Albion, NE

7:24 PM CDT on August 21, 2017 (GMT -0500)
Albion Municipal

Weather History for KBVN - December, 2013

Change the Weather History Date:

Monday, December 30, 2013

  Actual Average (KOFK) Record (KOFK)
Temperature  
Mean Temperature 24 °F -  
Max Temperature 40 °F 27 °F 71 °F (1904)
Min Temperature 8 °F 7 °F -17 °F (1968)
Degree Days  
Heating Degree Days 40    
Moisture  
Dew Point 7 °F    
Average Humidity 55    
Maximum Humidity 86    
Minimum Humidity 38    
Precipitation  
Precipitation 0.00 in - - ()
Sea Level Pressure  
Sea Level Pressure 30.09 in    
Wind  
Wind Speed 12 mph (WSW)    
Max Wind Speed 32 mph    
Max Gust Speed 46 mph    
Visibility 10 miles    
Events      
Averages and records for this station are not official NWS values.
T = Trace of Precipitation, MM = Missing Value Source: NWS Daily Summary

Daily Weather History Graph

Daily Weather History Graph

Search for Another Location

Airport or City:

Trip Planner

Search our weather history database for the weather conditions in past years. The results will help you decide how hot, cold, wet, or windy it might be!

Date:

Astronomy

Dec. 30, 2013 Rise Set
Actual Time 7:59 AM CST 5:10 PM CST
Civil Twilight 7:27 AM CST 5:42 PM CST
Nautical Twilight 6:52 AM CST 6:17 PM CST
Astronomical Twilight 6:18 AM CST 6:51 PM CST
Moon 5:49 AM CST (12/30) 3:46 PM CST (12/30)
Length of Visible Light 10h 14m
Length of Day
9h 11m
Waning Crescent, 4% of the Moon is Illuminated
Dec 30
Waning Crescent
Jan 1
New
Jan 7
First Quarter
Jan 15
Full
Jan 23
Last Quarter

Hourly Weather History & Observations

Time (CST) Temp. Windchill Dew Point Humidity Pressure Visibility Wind Dir Wind Speed Gust Speed Precip Events Conditions
12:15 AM 10.4 °F -2.4 °F -9.4 °F 41% 30.14 in 10.0 mi South 9.2 mph - N/A   Scattered Clouds
12:35 AM 10.2 °F -2.7 °F -9.0 °F 42% 30.13 in 10.0 mi South 9.2 mph - N/A   Overcast
12:55 AM 10.2 °F -3.5 °F -9.0 °F 42% 30.13 in 10.0 mi South 10.4 mph - N/A   Overcast
1:15 AM 10.4 °F -2.4 °F -8.5 °F 42% 30.12 in 10.0 mi SSE 9.2 mph - N/A   Overcast
1:35 AM 11.1 °F -1.6 °F -8.5 °F 41% 30.11 in 10.0 mi SSE 9.2 mph - N/A   Overcast
1:55 AM 11.3 °F -2.9 °F -8.7 °F 40% 30.10 in 10.0 mi SSE 11.5 mph - N/A   Overcast
2:15 AM 12.0 °F -2.7 °F -8.7 °F 39% 30.10 in 10.0 mi South 12.7 mph - N/A   Overcast
2:35 AM 12.2 °F -3.1 °F -9.2 °F 38% 30.09 in 10.0 mi SSE 13.8 mph - N/A   Overcast
2:55 AM 12.6 °F -2.0 °F -8.7 °F 38% 30.09 in 10.0 mi South 12.7 mph 19.6 mph N/A   Overcast
3:15 AM 12.9 °F -2.8 °F -8.5 °F 38% 30.08 in 10.0 mi SSE 15.0 mph - N/A   Overcast
3:35 AM 13.1 °F -2.6 °F -7.8 °F 39% 30.06 in 10.0 mi South 15.0 mph 20.7 mph N/A   Overcast
3:55 AM 13.5 °F -2.1 °F -7.6 °F 39% 30.05 in 10.0 mi SSE 15.0 mph - N/A   Overcast
4:15 AM 13.8 °F -2.2 °F -6.7 °F 40% 30.03 in 10.0 mi SSE 16.1 mph 19.6 mph N/A   Overcast
4:35 AM 14.0 °F -1.4 °F -5.4 °F 42% 30.02 in 10.0 mi SSE 15.0 mph 20.7 mph N/A   Overcast
4:55 AM 14.5 °F 1.1 °F -5.1 °F 42% 30.02 in 10.0 mi South 11.5 mph 21.9 mph N/A   Overcast
5:15 AM 15.3 °F 2.8 °F -5.1 °F 40% 30.04 in 10.0 mi South 10.4 mph - N/A   Overcast
5:35 AM 15.6 °F 1.2 °F -4.9 °F 40% 30.03 in 10.0 mi SSW 13.8 mph 18.4 mph N/A   Overcast
5:55 AM 15.8 °F 0.9 °F -4.2 °F 41% 30.03 in 10.0 mi South 15.0 mph - N/A   Overcast
6:15 AM 16.2 °F 3.9 °F -3.5 °F 42% 30.02 in 10.0 mi South 10.4 mph - N/A   Overcast
6:35 AM 16.5 °F 4.3 °F -1.7 °F 45% 30.03 in 10.0 mi SSW 10.4 mph - N/A   Overcast
6:55 AM 17.1 °F 4.3 °F -1.5 °F 44% 30.02 in 10.0 mi South 11.5 mph - N/A   Overcast
7:15 AM 17.2 °F 5.2 °F -0.4 °F 46% 30.02 in 10.0 mi South 10.4 mph - N/A   Overcast
7:35 AM 17.4 °F 5.4 °F 0.3 °F 47% 30.02 in 10.0 mi South 10.4 mph - N/A   Overcast
7:55 AM 17.6 °F 6.4 °F 0.5 °F 47% 30.02 in 10.0 mi South 9.2 mph - N/A   Overcast
8:15 AM 17.6 °F 7.3 °F 0.5 °F 47% 30.03 in 10.0 mi South 8.1 mph - N/A   Overcast
8:35 AM 17.6 °F 6.4 °F 0.9 °F 48% 30.03 in 10.0 mi SSW 9.2 mph - N/A   Mostly Cloudy
8:55 AM 17.6 °F 8.2 °F 1.2 °F 49% 30.02 in 10.0 mi South 6.9 mph - N/A   Scattered Clouds
9:15 AM 18.5 °F 9.3 °F 2.1 °F 49% 30.02 in 10.0 mi South 6.9 mph - N/A   Scattered Clouds
9:35 AM 20.3 °F 8.3 °F 3.9 °F 49% 30.03 in 10.0 mi SSW 11.5 mph - N/A   Mostly Cloudy
9:55 AM 21.9 °F 10.4 °F 5.4 °F 49% 30.02 in 10.0 mi SSW 11.5 mph - N/A   Overcast
10:15 AM 23.5 °F 13.0 °F 7.0 °F 49% 30.03 in 10.0 mi SW 10.4 mph - N/A   Overcast
10:35 AM 24.4 °F 14.9 °F 8.1 °F 50% 30.03 in 10.0 mi WSW 9.2 mph - N/A   Overcast
10:55 AM 25.3 °F 16.7 °F 9.1 °F 50% 30.04 in 10.0 mi WSW 8.1 mph - N/A   Overcast
11:15 AM 27.3 °F 23.4 °F 10.8 °F 50% 30.03 in 10.0 mi West 3.5 mph - N/A   Overcast
11:35 AM 30.6 °F 25.8 °F 13.6 °F 50% 30.01 in 10.0 mi WSW 4.6 mph - N/A   Overcast
11:55 AM 33.8 °F 29.6 °F 16.2 °F 49% 30.00 in 10.0 mi West 4.6 mph - N/A   Mostly Cloudy
12:15 PM 36.1 °F 31.4 °F 19.4 °F 51% 29.99 in 10.0 mi West 5.8 mph - N/A   Mostly Cloudy
12:35 PM 37.9 °F 29.2 °F 21.6 °F 52% 29.99 in 10.0 mi NW 15.0 mph 20.7 mph N/A   Overcast
12:55 PM 40.6 °F 29.6 °F 23.7 °F 51% 29.99 in 10.0 mi NW 28.8 mph 36.8 mph N/A   Overcast
1:15 PM 40.6 °F 30.7 °F 23.9 °F 51% 29.99 in 10.0 mi NW 23.0 mph 31.1 mph N/A   Overcast
1:35 PM 40.3 °F 29.7 °F 25.2 °F 55% 30.00 in 10.0 mi NNW 25.3 mph 36.8 mph N/A   Overcast
1:55 PM 40.8 °F 30.4 °F 25.9 °F 55% 30.01 in 10.0 mi NW 25.3 mph 34.5 mph N/A   Overcast
2:15 PM 40.1 °F 28.8 °F 24.3 °F 53% 30.02 in 10.0 mi NW 28.8 mph 34.5 mph N/A   Overcast
2:55 PM 38.3 °F 26.6 °F 21.4 °F 51% 30.04 in 10.0 mi NW 27.6 mph 35.7 mph N/A   Overcast
3:15 PM 37.4 °F 24.6 °F 21.0 °F 52% 30.05 in 10.0 mi NW 32.2 mph 41.4 mph N/A   Overcast
3:35 PM 36.3 °F 23.3 °F 19.2 °F 50% 30.07 in 10.0 mi NW 31.1 mph 46.0 mph N/A   Overcast
3:55 PM 36.7 °F 24.7 °F 20.3 °F 52% 30.08 in 10.0 mi NNW 26.5 mph 35.7 mph N/A   Overcast
4:15 PM 34.9 °F 21.3 °F 19.6 °F 54% 30.10 in 10.0 mi NNW 31.1 mph 39.1 mph N/A   Mostly Cloudy
4:35 PM 33.1 °F 18.7 °F 18.5 °F 55% 30.11 in 10.0 mi NW 32.2 mph 42.6 mph N/A   Scattered Clouds
4:55 PM 32.0 °F 18.9 °F 18.1 °F 57% 30.13 in 10.0 mi NW 24.2 mph 40.3 mph N/A   Scattered Clouds
5:15 PM 30.9 °F 18.1 °F 17.2 °F 57% 30.14 in 10.0 mi NW 21.9 mph 35.7 mph N/A   Scattered Clouds
5:35 PM 29.8 °F 16.6 °F 17.6 °F 60% 30.15 in 10.0 mi NNW 21.9 mph 26.5 mph N/A   Clear
5:55 PM 28.9 °F 17.3 °F 18.1 °F 64% 30.15 in 10.0 mi NNW 16.1 mph 25.3 mph N/A   Scattered Clouds
6:15 PM 27.3 °F 15.6 °F 17.4 °F 66% 30.16 in 10.0 mi NNW 15.0 mph 19.6 mph N/A   Scattered Clouds
6:35 PM 26.2 °F 14.7 °F 16.5 °F 67% 30.17 in 10.0 mi NNW 13.8 mph 21.9 mph N/A   Clear
6:55 PM 25.0 °F 12.6 °F 16.0 °F 69% 30.18 in 10.0 mi NNW 15.0 mph 21.9 mph N/A   Clear
7:15 PM 23.2 °F 12.0 °F 15.4 °F 72% 30.20 in 10.0 mi NNW 11.5 mph - N/A   Clear
7:35 PM 22.3 °F 9.7 °F 14.5 °F 72% 30.20 in 10.0 mi NNW 13.8 mph - N/A   Clear
7:55 PM 21.2 °F 11.7 °F 14.0 °F 74% 30.22 in 10.0 mi NW 8.1 mph - N/A   Clear
8:15 PM 20.3 °F 15.4 °F 13.6 °F 75% 30.23 in 10.0 mi NNW 3.5 mph - N/A   Clear
8:35 PM 19.0 °F - 12.7 °F 76% 30.23 in 10.0 mi Calm Calm - N/A   Clear
8:55 PM 16.3 °F 10.8 °F 11.3 °F 81% 30.23 in 10.0 mi North 3.5 mph - N/A   Clear
9:15 PM 16.2 °F - 10.9 °F 80% 30.23 in 10.0 mi Calm Calm - N/A   Clear
9:35 PM 15.1 °F 7.7 °F 10.4 °F 82% 30.22 in 10.0 mi North 4.6 mph - N/A   Clear
9:55 PM 15.8 °F - 11.1 °F 82% 30.22 in 10.0 mi Calm Calm - N/A   Clear
10:15 PM 10.8 °F - 6.8 °F 84% 30.23 in 10.0 mi Calm Calm - N/A   Clear
10:35 PM 11.8 °F - 8.4 °F 86% 30.22 in 10.0 mi Calm Calm - N/A   Scattered Clouds
10:55 PM 9.5 °F - 5.5 °F 84% 30.22 in 10.0 mi Calm Calm - N/A   Scattered Clouds
11:15 PM 12.6 °F 6.5 °F 9.0 °F 85% 30.20 in 10.0 mi SE 3.5 mph - N/A   Scattered Clouds
11:35 PM 9.1 °F - 5.2 °F 84% 30.20 in 10.0 mi Calm Calm - N/A   Mostly Cloudy
11:55 PM 8.2 °F - 4.6 °F 85% 30.22 in 10.0 mi Calm Calm - N/A   Mostly Cloudy